| time (UTC) | temp C | wind direction | speed KPH | gust KPH | rain 1hr cm | rain 24hr cm | rain mn cm | humidity % | barometer mb |
| 20260510083303 | 8 | 250 | 0.0 | 3.2 | 0.00 | 1.07 | 0.00 | 93 | 1009.9 |
| 20260510082803 | 8 | 250 | 1.6 | 3.2 | 0.00 | 1.07 | 0.00 | 93 | 1009.7 |
| 20260510082306 | 8 | 250 | 0.0 | 0.0 | 0.00 | 1.07 | 0.00 | 93 | 1009.7 |
| 20260510081803 | 8 | 250 | 0.0 | 0.0 | 0.00 | 1.07 | 0.00 | 93 | 1009.6 |
| 20260510081303 | 8 | 250 | 0.0 | 0.0 | 0.00 | 1.07 | 0.00 | 93 | 1009.6 |
| 20260510080803 | 8 | 250 | 0.0 | 0.0 | 0.00 | 1.07 | 0.00 | 93 | 1009.6 |
| 20260510080302 | 8 | 250 | 0.0 | 0.0 | 0.00 | 1.07 | 0.00 | 93 | 1009.7 |
| 20260510074803 | 8 | 250 | 0.0 | 0.0 | 0.00 | 1.07 | 0.00 | 93 | 1009.6 |
| 20260510074303 | 9 | 250 | 0.0 | 1.6 | 0.00 | 1.07 | 0.00 | 93 | 1009.8 |
| 20260510073303 | 9 | 250 | 0.0 | 3.2 | 0.00 | 1.07 | 0.00 | 94 | 1009.9 |
| 20260510072802 | 9 | 250 | 0.0 | 1.6 | 0.00 | 1.07 | 0.00 | 94 | 1009.9 |
| 20260510071803 | 8 | 250 | 0.0 | 1.6 | 0.00 | 1.07 | 0.00 | 93 | 1010.0 |
| 20260510071303 | 8 | 250 | 0.0 | 3.2 | 0.00 | 1.07 | 0.00 | 93 | 1010.1 |
| 20260510070803 | 8 | 250 | 0.0 | 3.2 | 0.00 | 1.07 | 0.00 | 93 | 1010.2 |
| 20260510070303 | 8 | 250 | 0.0 | 3.2 | 0.00 | 1.07 | 0.00 | 93 | 1010.2 |
| 20260510065802 | 8 | 250 | 0.0 | 3.2 | 0.00 | 1.07 | 0.00 | 94 | 1010.3 |
| 20260510065306 | 9 | 250 | 0.0 | 3.2 | 0.00 | 1.07 | 0.00 | 94 | 1010.5 |
| 20260510064303 | 8 | 250 | 0.0 | 0.0 | 0.00 | 1.07 | 0.00 | 94 | 1010.8 |
| 20260510063803 | 8 | 250 | 0.0 | 0.0 | 0.00 | 1.07 | 0.00 | 94 | 1010.7 |
| 20260510062803 | 8 | 250 | 0.0 | 0.0 | 0.00 | 1.07 | 0.00 | 94 | 1010.8 |
| 20260510062306 | 8 | 250 | 0.0 | 0.0 | 0.00 | 1.07 | 0.00 | 94 | 1010.9 |
| 20260510061803 | 8 | 250 | 0.0 | 1.6 | 0.00 | 1.07 | 0.00 | 94 | 1011.0 |
| 20260510061303 | 8 | 250 | 0.0 | 3.2 | 0.00 | 1.07 | 0.00 | 94 | 1011.0 |
| 20260510060803 | 8 | 250 | 0.0 | 3.2 | 0.00 | 1.09 | 0.00 | 94 | 1011.0 |
| 20260510060303 | 8 | 250 | 0.0 | 3.2 | 0.00 | 1.09 | 0.00 | 94 | 1010.9 |
| 20260510055803 | 8 | 250 | 0.0 | 4.8 | 0.00 | 1.09 | 0.00 | 94 | 1010.9 |
| 20260510055306 | 8 | 250 | 1.6 | 4.8 | 0.00 | 1.09 | 0.00 | 94 | 1011.0 |
| 20260510054803 | 8 | 250 | 1.6 | 4.8 | 0.00 | 1.09 | 0.00 | 94 | 1010.9 |
| 20260510054303 | 8 | 355 | 0.0 | 0.0 | 0.00 | 1.09 | 0.00 | 94 | 1010.6 |
| 20260510053803 | 8 | 355 | 0.0 | 0.0 | 0.00 | 1.09 | 0.00 | 94 | 1010.6 |
| 20260510053303 | 8 | 355 | 0.0 | 0.0 | 0.00 | 1.09 | 0.00 | 94 | 1010.6 |
| 20260510052803 | 8 | 355 | 0.0 | 0.0 | 0.00 | 1.09 | 0.00 | 94 | 1010.7 |
| 20260510052306 | 7 | 355 | 0.0 | 3.2 | 0.00 | 1.09 | 0.00 | 94 | 1010.8 |
| 20260510051803 | 7 | 355 | 0.0 | 3.2 | 0.00 | 1.09 | 0.00 | 94 | 1010.9 |
| 20260510051303 | 7 | 355 | 0.0 | 0.0 | 0.00 | 1.09 | 0.00 | 94 | 1010.8 |
| 20260510050803 | 7 | 355 | 0.0 | 0.0 | 0.00 | 1.09 | 0.00 | 94 | 1010.8 |
| 20260510050303 | 7 | 355 | 0.0 | 3.2 | 0.00 | 1.09 | 0.00 | 94 | 1010.8 |
| 20260510045804 | 7 | 355 | 0.0 | 3.2 | 0.00 | 1.09 | 0.00 | 93 | 1010.7 |
| 20260510045306 | 6 | 355 | 0.0 | 1.6 | 0.00 | 1.09 | 0.00 | 93 | 1010.7 |
| 20260510044803 | 6 | 329 | 0.0 | 1.6 | 0.00 | 1.09 | 0.00 | 93 | 1010.8 |
| 20260510044304 | 6 | 274 | 0.0 | 0.0 | 0.00 | 1.09 | 0.00 | 93 | 1010.7 |
| 20260510043803 | 6 | 274 | 0.0 | 3.2 | 0.00 | 1.09 | 0.00 | 92 | 1010.5 |
| 20260510043303 | 6 | 274 | 0.0 | 3.2 | 0.00 | 1.09 | 0.00 | 92 | 1010.4 |
| 20260510042803 | 6 | 274 | 0.0 | 3.2 | 0.00 | 1.09 | 0.00 | 92 | 1010.2 |
| 20260510042305 | 6 | 274 | 0.0 | 1.6 | 0.00 | 1.09 | 0.00 | 91 | 1010.1 |
| 20260510041804 | 6 | 274 | 0.0 | 3.2 | 0.00 | 1.09 | 0.00 | 91 | 1009.9 |
| 20260510041303 | 6 | 293 | 0.0 | 3.2 | 0.00 | 1.09 | 0.00 | 91 | 1009.9 |
| 20260510040815 | 6 | 293 | 0.0 | 3.2 | 0.00 | 1.09 | 0.00 | 91 | 1009.7 |
| 20260510040304 | 6 | 293 | 0.0 | 3.2 | 0.00 | 1.09 | 0.00 | 91 | 1009.8 |
| 20260510035804 | 6 | 214 | 0.0 | 1.6 | 0.00 | 1.09 | 1.09 | 91 | 1009.8 |
| 20260510035306 | 6 | 214 | 0.0 | 1.6 | 0.00 | 1.12 | 1.09 | 91 | 1009.9 |
| 20260510034803 | 6 | 214 | 0.0 | 1.6 | 0.00 | 1.12 | 1.09 | 91 | 1009.9 |
| 20260510034303 | 6 | 214 | 0.0 | 3.2 | 0.00 | 1.12 | 1.09 | 91 | 1009.8 |
| 20260510033804 | 6 | 214 | 0.0 | 3.2 | 0.00 | 1.12 | 1.09 | 91 | 1009.8 |
| 20260510033304 | 6 | 214 | 0.0 | 3.2 | 0.00 | 1.12 | 1.09 | 91 | 1009.8 |
| 20260510032803 | 6 | 214 | 0.0 | 0.0 | 0.00 | 1.12 | 1.09 | 91 | 1009.8 |
| 20260510032306 | 6 | 214 | 0.0 | 0.0 | 0.00 | 1.12 | 1.09 | 91 | 1009.8 |
| 20260510031803 | 6 | 214 | 0.0 | 1.6 | 0.00 | 1.12 | 1.09 | 91 | 1009.8 |
| 20260510031303 | 6 | 214 | 0.0 | 1.6 | 0.00 | 1.12 | 1.09 | 90 | 1009.8 |
| 20260510030803 | 7 | 214 | 0.0 | 0.0 | 0.00 | 1.12 | 1.09 | 90 | 1009.8 |
| 20260510025803 | 7 | 214 | 0.0 | 0.0 | 0.00 | 1.12 | 1.09 | 90 | 1009.9 |
| 20260510025305 | 7 | 214 | 0.0 | 3.2 | 0.00 | 1.12 | 1.09 | 90 | 1009.8 |
| 20260510024803 | 7 | 214 | 0.0 | 3.2 | 0.00 | 1.12 | 1.09 | 90 | 1009.7 |
| 20260510024304 | 7 | 214 | 0.0 | 3.2 | 0.00 | 1.12 | 1.09 | 90 | 1009.8 |
| 20260510023803 | 7 | 214 | 0.0 | 1.6 | 0.00 | 1.12 | 1.09 | 90 | 1009.8 |
| 20260510023303 | 7 | 214 | 0.0 | 1.6 | 0.00 | 1.12 | 1.09 | 90 | 1009.8 |
| 20260510022803 | 7 | 214 | 0.0 | 3.2 | 0.00 | 1.12 | 1.09 | 90 | 1009.9 |
| 20260510022306 | 7 | 214 | 0.0 | 3.2 | 0.00 | 1.12 | 1.09 | 89 | 1009.9 |
| 20260510021803 | 8 | 214 | 0.0 | 3.2 | 0.00 | 1.12 | 1.09 | 89 | 1009.7 |
| 20260510021303 | 8 | 214 | 0.0 | 3.2 | 0.00 | 1.12 | 1.09 | 89 | 1009.7 |
| 20260510020804 | 8 | 214 | 0.0 | 3.2 | 0.00 | 1.12 | 1.09 | 89 | 1009.8 |
| 20260510020304 | 8 | 214 | 0.0 | 0.0 | 0.00 | 1.12 | 1.09 | 89 | 1009.8 |
| 20260510015306 | 8 | 214 | 0.0 | 0.0 | 0.00 | 1.12 | 1.09 | 89 | 1009.7 |
| 20260510014803 | 8 | 214 | 0.0 | 0.0 | 0.00 | 1.12 | 1.09 | 89 | 1009.7 |
| 20260510014304 | 8 | 214 | 0.0 | 1.6 | 0.00 | 1.12 | 1.09 | 89 | 1009.6 |
| 20260510013304 | 9 | 214 | 0.0 | 1.6 | 0.00 | 1.12 | 1.09 | 88 | 1009.6 |
| 20260510012803 | 9 | 214 | 0.0 | 0.0 | 0.00 | 1.12 | 1.09 | 88 | 1009.6 |
| 20260510011803 | 9 | 214 | 0.0 | 0.0 | 0.00 | 1.12 | 1.09 | 87 | 1009.3 |
| 20260510011303 | 10 | 214 | 0.0 | 3.2 | 0.00 | 1.12 | 1.09 | 87 | 1009.2 |
| 20260510010803 | 10 | 214 | 0.0 | 3.2 | 0.00 | 1.12 | 1.09 | 87 | 1009.2 |
| 20260510010303 | 10 | 214 | 0.0 | 3.2 | 0.00 | 1.12 | 1.09 | 86 | 1009.1 |
| 20260510005804 | 10 | 214 | 0.0 | 1.6 | 0.00 | 1.12 | 1.09 | 86 | 1009.1 |
| 20260510005306 | 10 | 214 | 0.0 | 1.6 | 0.00 | 1.12 | 1.09 | 85 | 1009.1 |
| 20260510004803 | 10 | 214 | 0.0 | 0.0 | 0.00 | 1.12 | 1.09 | 85 | 1009.1 |
| 20260510004303 | 11 | 214 | 0.0 | 0.0 | 0.00 | 1.12 | 1.09 | 84 | 1008.9 |
| 20260510001803 | 11 | 214 | 0.0 | 3.2 | 0.00 | 1.12 | 1.09 | 82 | 1008.7 |
| 20260510001304 | 12 | 214 | 0.0 | 3.2 | 0.00 | 1.12 | 1.09 | 82 | 1008.8 |
| 20260510000304 | 12 | 205 | 1.6 | 4.8 | 0.00 | 1.12 | 1.09 | 77 | 1008.8 |
| 20260509235804 | 12 | 194 | 0.0 | 4.8 | 0.00 | 1.12 | 1.09 | 77 | 1008.6 |
| 20260509234803 | 13 | 135 | 1.6 | 16.1 | 0.00 | 1.12 | 1.09 | 76 | 1008.5 |
| 20260509234303 | 13 | 166 | 1.6 | 4.8 | 0.00 | 1.12 | 1.09 | 76 | 1008.5 |
| 20260509233804 | 14 | 202 | 0.0 | 0.0 | 0.00 | 1.12 | 1.09 | 78 | 1008.3 |
| 20260509231803 | 14 | 214 | 0.0 | 3.2 | 0.00 | 1.14 | 1.09 | 77 | 1008.0 |
| 20260509231304 | 14 | 220 | 0.0 | 4.8 | 0.00 | 1.14 | 1.09 | 75 | 1008.1 |
| 20260509230803 | 14 | 227 | 1.6 | 4.8 | 0.00 | 1.14 | 1.09 | 75 | 1008.1 |
| 20260509230303 | 14 | 249 | 0.0 | 4.8 | 0.00 | 1.14 | 1.09 | 75 | 1008.1 |
| 20260509225803 | 14 | 193 | 1.6 | 4.8 | 0.00 | 1.14 | 1.09 | 76 | 1008.0 |
| 20260509225306 | 14 | 171 | 3.2 | 8.0 | 0.00 | 1.14 | 1.09 | 75 | 1007.8 |
| 20260509224803 | 13 | 233 | 1.6 | 11.3 | 0.00 | 1.14 | 1.09 | 76 | 1007.9 |
| 20260509224304 | 13 | 173 | 3.2 | 14.5 | 0.00 | 1.14 | 1.09 | 76 | 1008.0 |
| 20260509223803 | 13 | 192 | 3.2 | 19.3 | 0.00 | 1.14 | 1.09 | 77 | 1008.2 |
| 20260509223303 | 13 | 217 | 4.8 | 19.3 | 0.00 | 1.14 | 1.09 | 76 | 1008.3 |
| 20260509221803 | 13 | 182 | 3.2 | 19.3 | 0.00 | 1.14 | 1.09 | 79 | 1008.3 |
| 20260509221303 | 13 | 233 | 4.8 | 19.3 | 0.00 | 1.14 | 1.09 | 79 | 1008.3 |
| 20260509220303 | 13 | 254 | 4.8 | 12.9 | 0.00 | 1.14 | 1.09 | 80 | 1008.3 |
| 20260509215803 | 13 | 195 | 4.8 | 9.7 | 0.00 | 1.14 | 1.09 | 81 | 1008.4 |
| 20260509215306 | 12 | 217 | 6.4 | 11.3 | 0.00 | 1.14 | 1.09 | 81 | 1008.4 |
| 20260509214803 | 12 | 243 | 4.8 | 11.3 | 0.00 | 1.14 | 1.09 | 82 | 1008.5 |
| 20260509213804 | 12 | 213 | 8.0 | 14.5 | 0.00 | 1.14 | 1.09 | 80 | 1008.6 |
| 20260509213304 | 12 | 230 | 4.8 | 14.5 | 0.00 | 1.14 | 1.09 | 80 | 1008.6 |
| 20260509212306 | 13 | 222 | 6.4 | 16.1 | 0.00 | 1.14 | 1.09 | 82 | 1008.6 |
| 20260509211803 | 13 | 185 | 4.8 | 16.1 | 0.00 | 1.14 | 1.09 | 82 | 1008.6 |
| 20260509211303 | 12 | 148 | 3.2 | 9.7 | 0.00 | 1.14 | 1.09 | 84 | 1008.8 |
| 20260509210304 | 12 | 202 | 1.6 | 4.8 | 0.00 | 1.14 | 1.09 | 88 | 1008.8 |
| 20260509205307 | 12 | 202 | 1.6 | 4.8 | 0.00 | 1.14 | 1.09 | 87 | 1008.9 |
| 20260509204804 | 11 | 225 | 1.6 | 4.8 | 0.00 | 1.14 | 1.09 | 88 | 1008.9 |
| 20260509204303 | 11 | 205 | 0.0 | 4.8 | 0.00 | 1.14 | 1.09 | 88 | 1009.0 |
| 20260509202803 | 11 | 240 | 4.8 | 9.7 | 0.03 | 1.14 | 1.09 | 88 | 1009.1 |
| 20260509202306 | 11 | 216 | 3.2 | 8.0 | 0.03 | 1.14 | 1.09 | 88 | 1009.2 |
| 20260509200803 | 11 | 219 | 1.6 | 4.8 | 0.08 | 1.14 | 1.09 | 89 | 1009.1 |
| 20260509200303 | 11 | 207 | 1.6 | 4.8 | 0.10 | 1.14 | 1.09 | 88 | 1009.2 |
| 20260509195803 | 11 | 180 | 1.6 | 4.8 | 0.13 | 1.14 | 1.09 | 88 | 1009.2 |
| 20260509195306 | 11 | 137 | 0.0 | 3.2 | 0.13 | 1.14 | 1.09 | 89 | 1009.3 |
| 20260509194804 | 10 | 243 | 0.0 | 3.2 | 0.15 | 1.14 | 1.09 | 89 | 1009.2 |
| 20260509194304 | 10 | 243 | 0.0 | 3.2 | 0.15 | 1.14 | 1.09 | 88 | 1009.4 |
| 20260509193803 | 10 | 195 | 0.0 | 3.2 | 0.15 | 1.12 | 1.07 | 89 | 1009.6 |
| 20260509193303 | 10 | 195 | 0.0 | 3.2 | 0.15 | 1.12 | 1.07 | 89 | 1009.7 |
| 20260509192804 | 10 | 234 | 0.0 | 3.2 | 0.18 | 1.12 | 1.07 | 88 | 1009.6 |
| 20260509191803 | 10 | 184 | 0.0 | 4.8 | 0.20 | 1.12 | 1.07 | 88 | 1009.7 |
| 20260509185803 | 10 | 145 | 0.0 | 4.8 | 0.20 | 1.02 | 0.97 | 88 | 1010.1 |
| 20260509185306 | 10 | 270 | 1.6 | 4.8 | 0.23 | 1.02 | 0.97 | 88 | 1010.2 |
| 20260509184304 | 10 | 164 | 0.0 | 4.8 | 0.23 | 0.99 | 0.94 | 88 | 1010.2 |
| 20260509183303 | 10 | 116 | 0.0 | 4.8 | 0.25 | 0.97 | 0.91 | 88 | 1010.0 |
| 20260509181803 | 10 | 155 | 4.8 | 11.3 | 0.28 | 0.91 | 0.86 | 89 | 1010.0 |
| 20260509181304 | 10 | 145 | 0.0 | 4.8 | 0.25 | 0.86 | 0.81 | 89 | 1010.2 |
| 20260509180803 | 10 | 188 | 1.6 | 4.8 | 0.25 | 0.84 | 0.79 | 89 | 1010.2 |
| 20260509180303 | 10 | 155 | 1.6 | 4.8 | 0.25 | 0.81 | 0.76 | 90 | 1010.2 |
| 20260509174804 | 10 | 176 | 0.0 | 4.8 | 0.25 | 0.76 | 0.71 | 90 | 1010.1 |
| 20260509173804 | 10 | 217 | 0.0 | 4.8 | 0.25 | 0.74 | 0.69 | 90 | 1010.2 |
| 20260509173303 | 10 | 152 | 0.0 | 4.8 | 0.25 | 0.71 | 0.66 | 90 | 1010.1 |
| 20260509172306 | 10 | 175 | 1.6 | 11.3 | 0.25 | 0.69 | 0.64 | 90 | 1010.2 |
| 20260509171803 | 10 | 185 | 0.0 | 11.3 | 0.20 | 0.64 | 0.58 | 90 | 1010.3 |
| 20260509170802 | 10 | 165 | 0.0 | 4.8 | 0.18 | 0.58 | 0.53 | 89 | 1010.1 |
| 20260509170303 | 10 | 113 | 1.6 | 4.8 | 0.15 | 0.56 | 0.51 | 89 | 1010.1 |
| 20260509165802 | 10 | 215 | 0.0 | 4.8 | 0.13 | 0.53 | 0.48 | 89 | 1010.2 |
| 20260509165306 | 10 | 154 | 1.6 | 4.8 | 0.13 | 0.51 | 0.46 | 89 | 1010.2 |
| 20260509164802 | 10 | 90 | 0.0 | 4.8 | 0.13 | 0.51 | 0.46 | 89 | 1010.1 |
| 20260509163303 | 10 | 179 | 3.2 | 9.7 | 0.10 | 0.46 | 0.41 | 89 | 1010.3 |
| 20260509162803 | 10 | 153 | 3.2 | 12.9 | 0.10 | 0.46 | 0.41 | 89 | 1010.3 |
| 20260509162306 | 10 | 157 | 3.2 | 12.9 | 0.08 | 0.43 | 0.38 | 89 | 1010.3 |
| 20260509161802 | 10 | 192 | 1.6 | 8.0 | 0.08 | 0.43 | 0.38 | 89 | 1010.3 |
| 20260509161303 | 10 | 139 | 0.0 | 4.8 | 0.05 | 0.41 | 0.36 | 89 | 1010.3 |
| 20260509160802 | 10 | 207 | 1.6 | 9.7 | 0.08 | 0.41 | 0.36 | 90 | 1010.3 |
| 20260509160302 | 10 | 205 | 3.2 | 9.7 | 0.08 | 0.41 | 0.36 | 89 | 1010.4 |
| 20260509155802 | 10 | 161 | 0.0 | 8.0 | 0.08 | 0.41 | 0.36 | 90 | 1010.3 |
| 20260509155306 | 10 | 120 | 3.2 | 8.0 | 0.05 | 0.38 | 0.33 | 90 | 1010.3 |
| 20260509154803 | 10 | 178 | 3.2 | 8.0 | 0.05 | 0.38 | 0.33 | 90 | 1010.3 |
| 20260509154303 | 10 | 66 | 0.0 | 4.8 | 0.05 | 0.38 | 0.33 | 90 | 1010.4 |
| 20260509153802 | 10 | 206 | 0.0 | 4.8 | 0.08 | 0.38 | 0.33 | 89 | 1010.4 |
| 20260509153303 | 10 | 160 | 1.6 | 4.8 | 0.05 | 0.36 | 0.30 | 89 | 1010.5 |
| 20260509152803 | 10 | 163 | 1.6 | 4.8 | 0.05 | 0.36 | 0.30 | 89 | 1010.6 |
| 20260509152305 | 10 | 157 | 1.6 | 4.8 | 0.08 | 0.36 | 0.30 | 89 | 1010.6 |
| 20260509151802 | 10 | 129 | 1.6 | 4.8 | 0.10 | 0.36 | 0.30 | 88 | 1010.4 |
| 20260509151303 | 10 | 175 | 0.0 | 3.2 | 0.10 | 0.36 | 0.30 | 89 | 1010.5 |
| 20260509150303 | 10 | 144 | 1.6 | 8.0 | 0.10 | 0.33 | 0.28 | 88 | 1010.5 |
| 20260509145803 | 10 | 212 | 1.6 | 4.8 | 0.10 | 0.33 | 0.28 | 89 | 1010.4 |
| 20260509145306 | 10 | 322 | 0.0 | 3.2 | 0.13 | 0.33 | 0.28 | 89 | 1010.2 |
| 20260509144303 | 10 | 334 | 0.0 | 3.2 | 0.15 | 0.33 | 0.28 | 89 | 1010.0 |
| 20260509143803 | 10 | 335 | 0.0 | 3.2 | 0.13 | 0.30 | 0.25 | 89 | 1010.2 |
| 20260509143303 | 10 | 341 | 0.0 | 8.0 | 0.13 | 0.30 | 0.25 | 88 | 1010.4 |
| 20260509142803 | 10 | 113 | 0.0 | 8.0 | 0.13 | 0.30 | 0.25 | 88 | 1010.7 |
| 20260509142306 | 10 | 92 | 0.0 | 4.8 | 0.10 | 0.28 | 0.23 | 89 | 1010.9 |
| 20260509141802 | 10 | 133 | 0.0 | 4.8 | 0.10 | 0.25 | 0.20 | 88 | 1010.9 |
| 20260509140802 | 10 | 171 | 0.0 | 3.2 | 0.10 | 0.25 | 0.20 | 88 | 1010.9 |
| 20260509140303 | 10 | 214 | 0.0 | 3.2 | 0.08 | 0.23 | 0.18 | 88 | 1010.5 |
| 20260509135803 | 10 | 214 | 0.0 | 1.6 | 0.08 | 0.23 | 0.18 | 88 | 1010.5 |
| 20260509134803 | 10 | 214 | 0.0 | 0.0 | 0.05 | 0.20 | 0.15 | 86 | 1010.4 |
| 20260509134302 | 10 | 214 | 0.0 | 0.0 | 0.03 | 0.18 | 0.13 | 87 | 1010.2 |
| 20260509133302 | 9 | 214 | 0.0 | 3.2 | 0.03 | 0.18 | 0.13 | 88 | 1010.2 |
| 20260509132803 | 9 | 214 | 0.0 | 3.2 | 0.03 | 0.18 | 0.13 | 88 | 1010.3 |
| 20260509131302 | 9 | 319 | 0.0 | 3.2 | 0.00 | 0.15 | 0.10 | 90 | 1010.3 |
| 20260509130802 | 9 | 319 | 0.0 | 0.0 | 0.00 | 0.15 | 0.10 | 90 | 1010.2 |
| 20260509130303 | 9 | 319 | 0.0 | 1.6 | 0.00 | 0.15 | 0.10 | 90 | 1010.2 |
| 20260509125802 | 9 | 319 | 0.0 | 1.6 | 0.00 | 0.15 | 0.10 | 90 | 1010.2 |
| 20260509125307 | 9 | 183 | 0.0 | 1.6 | 0.00 | 0.15 | 0.10 | 90 | 1010.3 |
| 20260509124803 | 9 | 187 | 0.0 | 3.2 | 0.00 | 0.15 | 0.10 | 91 | 1010.4 |
| 20260509124303 | 9 | 188 | 0.0 | 3.2 | 0.03 | 0.15 | 0.10 | 90 | 1010.4 |
| 20260509122802 | 8 | 179 | 0.0 | 3.2 | 0.03 | 0.15 | 0.10 | 91 | 1010.3 |
| 20260509122305 | 8 | 179 | 0.0 | 3.2 | 0.03 | 0.15 | 0.10 | 91 | 1010.4 |
| 20260509121802 | 8 | 213 | 0.0 | 3.2 | 0.03 | 0.15 | 0.10 | 92 | 1010.5 |
| 20260509121302 | 8 | 213 | 0.0 | 3.2 | 0.03 | 0.15 | 0.10 | 92 | 1010.3 |
| 20260509120803 | 8 | 213 | 0.0 | 3.2 | 0.03 | 0.15 | 0.10 | 92 | 1010.4 |
| 20260509115803 | 8 | 305 | 0.0 | 3.2 | 0.05 | 0.15 | 0.10 | 92 | 1010.5 |
| 20260509115306 | 8 | 305 | 0.0 | 0.0 | 0.05 | 0.15 | 0.10 | 92 | 1010.5 |
| 20260509113803 | 8 | 308 | 0.0 | 3.2 | 0.03 | 0.13 | 0.08 | 92 | 1010.8 |
| 20260509113302 | 8 | 321 | 0.0 | 1.6 | 0.03 | 0.13 | 0.08 | 92 | 1010.6 |
| 20260509112803 | 8 | 321 | 0.0 | 3.2 | 0.05 | 0.13 | 0.08 | 92 | 1010.5 |
| 20260509111802 | 7 | 287 | 0.0 | 3.2 | 0.05 | 0.13 | 0.08 | 92 | 1010.6 |
| 20260509111303 | 7 | 287 | 1.6 | 3.2 | 0.05 | 0.13 | 0.08 | 92 | 1010.6 |
| 20260509110803 | 7 | 341 | 0.0 | 3.2 | 0.05 | 0.13 | 0.08 | 92 | 1010.5 |
| 20260509110303 | 7 | 339 | 1.6 | 3.2 | 0.03 | 0.10 | 0.05 | 92 | 1010.4 |
| 20260509105802 | 7 | 291 | 1.6 | 3.2 | 0.03 | 0.10 | 0.05 | 92 | 1010.5 |
| 20260509104302 | 7 | 275 | 0.0 | 3.2 | 0.03 | 0.10 | 0.05 | 92 | 1010.4 |
| 20260509103802 | 7 | 259 | 1.6 | 3.2 | 0.03 | 0.10 | 0.05 | 92 | 1010.3 |
| 20260509103303 | 7 | 218 | 0.0 | 3.2 | 0.03 | 0.10 | 0.05 | 92 | 1010.3 |
| 20260509102803 | 7 | 218 | 0.0 | 3.2 | 0.00 | 0.08 | 0.03 | 92 | 1010.3 |
| 20260509102305 | 7 | 218 | 1.6 | 3.2 | 0.00 | 0.08 | 0.03 | 92 | 1010.3 |
| 20260509101802 | 7 | 224 | 0.0 | 3.2 | 0.00 | 0.08 | 0.03 | 92 | 1010.1 |
| 20260509101303 | 7 | 223 | 0.0 | 4.8 | 0.00 | 0.08 | 0.03 | 91 | 1010.2 |
| 20260509100803 | 7 | 223 | 1.6 | 4.8 | 0.00 | 0.08 | 0.03 | 92 | 1010.2 |
| 20260509100303 | 7 | 244 | 0.0 | 0.0 | 0.00 | 0.08 | 0.03 | 92 | 1010.2 |
| 20260509095802 | 7 | 296 | 0.0 | 0.0 | 0.00 | 0.08 | 0.03 | 91 | 1010.2 |
| 20260509095305 | 7 | 296 | 0.0 | 0.0 | 0.00 | 0.08 | 0.03 | 91 | 1010.2 |
| 20260509094803 | 7 | 296 | 0.0 | 0.0 | 0.00 | 0.08 | 0.03 | 91 | 1010.3 |
| 20260509094303 | 7 | 296 | 0.0 | 0.0 | 0.00 | 0.08 | 0.03 | 91 | 1010.2 |
| 20260509093303 | 7 | 296 | 0.0 | 0.0 | 0.00 | 0.08 | 0.03 | 91 | 1010.3 |
| 20260509092803 | 7 | 296 | 0.0 | 0.0 | 0.00 | 0.08 | 0.03 | 91 | 1010.3 |
| 20260509092305 | 7 | 296 | 0.0 | 0.0 | 0.00 | 0.08 | 0.03 | 91 | 1010.3 |
| 20260509091803 | 7 | 296 | 0.0 | 0.0 | 0.00 | 0.08 | 0.03 | 91 | 1010.4 |
| 20260509091303 | 7 | 296 | 0.0 | 0.0 | 0.00 | 0.08 | 0.03 | 91 | 1010.4 |
| 20260509090803 | 7 | 296 | 0.0 | 0.0 | 0.00 | 0.08 | 0.03 | 91 | 1010.6 |
| 20260509090303 | 7 | 296 | 0.0 | 0.0 | 0.00 | 0.08 | 0.03 | 91 | 1010.6 |
| 20260509085803 | 7 | 296 | 0.0 | 0.0 | 0.00 | 0.08 | 0.03 | 91 | 1010.7 |
| 20260509085306 | 7 | 296 | 0.0 | 0.0 | 0.00 | 0.08 | 0.03 | 91 | 1010.7 |
| 20260509084803 | 7 | 296 | 0.0 | 0.0 | 0.00 | 0.08 | 0.03 | 91 | 1010.8 |
| 20260509083803 | 7 | 296 | 0.0 | 3.2 | 0.00 | 0.08 | 0.03 | 91 | 1011.0 |